Date String (YYYY-MM-DD hh:mm:ss) UTC,Instrument flags,absolute air pressure of the measurement (hPa),sample flow rate (lpm),inlet stack bypass flow (lpm),air temperature of the measurement (°C),ambient temperature measured by the external sensor (°C),aerosol sample conditioner tube jacket temperature (°C),OPC LED temperature (°C),internal box temperature (°C),relative humidity of the measurement (%),span deviation,mass concentration of particles derived from Lorenz-Mie calculation of OPC scattering (μg/m³),mass concentration of particles derived from Lorenz-Mie calculation of OPC scattering (μg/m³),mass concentration of particles derived from Lorenz-Mie calculation of OPC scattering (μg/m³)
DateTimeUTC,F1_M11,P_M11,Q1_M11,Q2_M11,T1_M11,T2_M11,T3_M11,T4_M11,T5_M11,U1_M11,ZSPAN_M11,X0_M11,X2_M11,X1_M11
2024-03-07 21:00:00,SystemResetWarning,0821.6,5.00,000.00,018.3,017.5,000.0,026.9,020.0,28.3,-000.0,0020.06,0010.21,0008.95
2024-03-07 21:01:00,SystemResetWarning,0821.6,5.01,000.00,018.3,017.5,000.0,026.9,020.0,28.3,0000.3,0019.56,0010.20,0008.98
2024-03-07 21:02:00,SystemResetWarning,0821.6,5.01,000.00,018.3,017.5,000.0,026.9,020.0,28.2,0000.4,0019.98,0010.18,0008.99
2024-03-07 21:03:00,SystemResetWarning,0821.6,5.00,000.00,018.3,017.7,000.0,026.9,020.1,28.2,0000.5,0019.94,0010.23,0009.01
2024-03-07 21:04:00,SystemResetWarning,0821.7,5.00,000.00,018.5,018.5,000.0,027.0,020.6,28.0,0000.5,0020.59,0010.32,0009.04
2024-03-07 21:05:00,SystemResetWarning,0821.7,5.00,000.00,018.7,018.9,000.0,027.1,020.9,27.7,0000.8,0021.25,0010.36,0009.07
2024-03-07 21:06:00,SystemResetWarning,0821.7,4.99,000.00,018.7,018.8,000.0,027.0,020.8,27.6,0001.0,0021.69,0010.41,0009.10
2024-03-07 21:07:00,SystemResetWarning,0821.7,4.98,000.00,018.8,018.7,000.0,027.0,020.7,27.6,0001.0,0021.60,0010.46,0009.15
2024-03-07 21:08:00,SystemResetWarning,0821.7,5.01,000.00,018.8,018.5,000.0,027.0,020.6,27.6,0000.5,0021.72,0010.55,0009.19
2024-03-07 21:09:00,SystemResetWarning,0821.7,5.01,000.00,018.7,018.4,000.0,027.1,020.6,27.6,0000.8,0022.55,0010.58,0009.20
2024-03-07 21:10:00,SystemResetWarning,0821.7,5.00,000.00,018.7,018.3,000.0,027.1,020.5,27.6,0001.0,0021.84,0010.61,0009.26
2024-03-07 21:11:00,SystemResetWarning,0821.8,4.99,000.00,018.7,018.2,000.0,027.1,020.5,27.7,0000.5,0022.31,0010.71,0009.28
2024-03-07 21:12:00,SystemResetWarning,0821.7,4.99,000.00,018.7,018.2,000.0,027.1,020.5,27.7,0000.2,0022.05,0010.79,0009.30
2024-03-07 21:13:00,SystemResetWarning,0821.8,5.00,000.00,018.7,018.1,000.0,027.1,020.4,27.7,0000.5,0021.64,0010.87,0009.31
2024-03-07 21:14:00,SystemResetWarning,0821.7,5.01,000.00,018.7,018.0,000.0,027.1,020.4,27.8,0000.5,0021.66,0010.91,0009.32
2024-03-07 21:15:00,SystemResetWarning,0821.7,5.00,000.00,018.7,018.0,000.0,027.1,020.4,27.9,0000.7,0021.45,0010.91,0009.31
2024-03-07 21:16:00,SystemResetWarning,0821.7,5.01,000.00,018.7,018.0,000.0,027.1,020.4,28.0,0000.9,0020.17,0010.88,0009.32
2024-03-07 21:17:00,SystemResetWarning,0821.8,5.00,000.00,018.6,017.9,000.0,027.1,020.4,28.0,0001.1,0020.00,0010.96,0009.32
2024-03-07 21:18:00,SystemResetWarning,0821.8,4.98,000.00,018.6,017.9,000.0,027.1,020.3,28.1,0001.4,0019.70,0010.96,0009.32
2024-03-07 21:19:00,SystemResetWarning,0821.8,5.00,000.00,018.6,017.9,000.0,027.1,020.3,28.2,0001.8,0019.90,0010.98,0009.32
2024-03-07 21:20:00,SystemResetWarning,0821.8,5.01,000.00,018.6,017.9,000.0,027.1,020.3,28.2,0001.5,0020.33,0010.98,0009.33
2024-03-07 21:21:00,SystemResetWarning,0821.8,5.00,000.00,018.6,017.9,000.0,027.1,020.3,28.2,0001.5,0020.89,0010.94,0009.32
2024-03-07 21:22:00,SystemResetWarning,0821.8,5.01,000.00,018.6,017.8,000.0,027.1,020.3,28.2,0002.0,0020.26,0010.89,0009.29
2024-03-07 21:23:00,SystemResetWarning,0821.8,4.99,000.00,018.6,017.8,000.0,027.1,020.3,28.3,0002.0,0020.56,0010.84,0009.27
2024-03-07 21:24:00,SystemResetWarning,0821.9,4.99,000.00,018.5,017.8,000.0,027.1,020.3,28.3,0001.8,0020.68,0010.79,0009.26
2024-03-07 21:25:00,SystemResetWarning,0821.8,5.00,000.00,018.5,017.8,000.0,027.1,020.3,28.4,0001.9,0020.36,0010.71,0009.26
2024-03-07 21:26:00,SystemResetWarning,0821.8,4.99,000.00,018.5,017.8,000.0,027.1,020.3,28.4,0001.6,0019.79,0010.63,0009.25
2024-03-07 21:27:00,SystemResetWarning,0821.9,5.00,000.00,018.5,017.8,000.0,027.1,020.3,28.6,0001.4,0019.89,0010.61,0009.24
2024-03-07 21:28:00,SystemResetWarning,0821.9,5.00,000.00,018.5,017.8,000.0,027.1,020.3,29.1,0001.1,0019.65,0010.51,0009.22
2024-03-07 21:29:00,SystemResetWarning,0821.9,5.01,000.00,018.5,017.8,000.0,027.1,020.2,28.9,0000.9,0020.10,0010.51,0009.21
2024-03-07 21:30:00,SystemResetWarning,0821.9,5.01,000.00,018.5,017.7,000.0,027.1,020.2,28.7,0000.9,0019.91,0010.48,0009.21
2024-03-07 21:31:00,SystemResetWarning,0821.9,5.00,000.00,018.5,017.7,000.0,027.1,020.2,28.6,0001.2,0019.31,0010.51,0009.22
2024-03-07 21:32:00,SystemResetWarning,0822.0,4.99,000.00,018.5,017.7,000.0,027.1,020.2,28.6,0001.1,0019.34,0010.54,0009.23
2024-03-07 21:33:00,SystemResetWarning,0822.0,5.00,000.00,018.5,017.7,000.0,027.1,020.2,28.6,0000.7,0020.10,0010.58,0009.26
2024-03-07 21:34:00,SystemResetWarning,0822.0,5.00,000.00,018.5,017.7,000.0,027.0,020.1,28.5,0000.7,0020.36,0010.61,0009.28
2024-03-07 21:35:00,SystemResetWarning,0822.0,4.99,000.00,018.4,017.6,000.0,027.0,020.1,28.5,0000.8,0020.19,0010.62,0009.29
2024-03-07 21:36:00,SystemResetWarning,0822.0,5.01,000.00,018.4,017.6,000.0,027.0,020.1,28.4,0000.7,0020.78,0010.65,0009.29
2024-03-07 21:37:00,SystemResetWarning,0821.9,5.01,000.00,018.4,017.6,000.0,027.0,020.1,28.4,0000.6,0021.27,0010.71,0009.30
2024-03-07 21:38:00,SystemResetWarning,0822.0,5.00,000.00,018.4,017.5,000.0,027.0,020.0,28.4,0000.7,0021.40,0010.74,0009.32
2024-03-07 21:39:00,SystemResetWarning,0822.0,5.00,000.00,018.4,017.5,000.0,027.0,020.1,28.4,0000.4,0021.60,0010.78,0009.34
2024-03-07 21:40:00,SystemResetWarning,0821.9,5.00,000.00,018.4,017.5,000.0,027.0,020.0,28.4,0000.7,0021.33,0010.82,0009.36
2024-03-07 21:41:00,SystemResetWarning,0821.9,4.99,000.00,018.3,017.5,000.0,027.0,020.0,28.4,0000.7,0020.81,0010.83,0009.37
2024-03-07 21:42:00,SystemResetWarning,0821.9,5.00,000.00,018.3,017.5,000.0,027.0,020.0,28.5,0000.8,0021.02,0010.83,0009.38
2024-03-07 21:43:00,SystemResetWarning,0821.9,5.01,000.00,018.3,017.5,000.0,027.0,020.0,28.5,0001.1,0020.65,0010.81,0009.38
2024-03-07 21:44:00,SystemResetWarning,0822.0,5.00,000.00,018.3,017.5,000.0,027.0,020.0,28.4,0001.3,0020.16,0010.79,0009.38
2024-03-07 21:45:00,SystemResetWarning,0822.0,5.00,000.00,018.3,017.5,000.0,026.9,020.0,28.4,0001.7,0021.05,0010.78,0009.40
2024-03-07 21:46:00,SystemResetWarning,0822.0,5.01,000.00,018.3,017.5,000.0,026.9,020.0,28.4,0001.7,0021.56,0010.79,0009.41
2024-03-07 21:47:00,SystemResetWarning,0822.0,5.01,000.00,018.3,017.5,000.0,026.9,020.0,28.4,0001.7,0021.60,0010.84,0009.44
2024-03-07 21:48:00,SystemResetWarning,0822.0,5.00,000.00,018.3,017.5,000.0,026.9,020.0,28.4,0001.9,0021.19,0010.83,0009.48
2024-03-07 21:49:00,SystemResetWarning,0821.9,5.00,000.00,018.3,017.6,000.0,026.9,020.0,28.5,0002.0,0021.75,0010.84,0009.49
2024-03-07 21:50:00,SystemResetWarning,0822.0,5.00,000.00,018.3,017.6,000.0,026.9,020.0,28.5,0002.0,0021.29,0010.86,0009.51
2024-03-07 21:51:00,SystemResetWarning,0822.0,4.99,000.00,018.3,017.6,000.0,026.9,020.0,28.5,0001.8,0021.51,0010.94,0009.55
2024-03-07 21:52:00,SystemResetWarning,0822.0,4.99,000.00,018.3,017.6,000.0,026.9,020.0,28.5,0001.8,0021.73,0011.03,0009.64
2024-03-07 21:53:00,SystemResetWarning,0821.9,5.01,000.00,018.3,017.6,000.0,026.9,020.0,28.5,0001.7,0022.76,0011.10,0009.73
2024-03-07 21:54:00,SystemResetWarning,0821.9,5.01,000.00,018.3,017.6,000.0,026.9,020.0,28.5,0001.2,0023.05,0011.18,0009.83
2024-03-07 21:55:00,SystemResetWarning,0821.9,5.01,000.00,018.3,017.6,000.0,026.9,020.0,28.5,0000.9,0023.38,0011.29,0009.96
2024-03-07 21:56:00,SystemResetWarning,0821.9,4.99,000.00,018.3,017.6,000.0,026.9,020.0,28.5,0000.6,0022.63,0011.45,0010.07
2024-03-07 21:57:00,SystemResetWarning,0822.0,4.99,000.00,018.3,017.6,000.0,026.9,020.0,28.5,0000.2,0021.46,0011.55,0010.18
2024-03-07 21:58:00,SystemResetWarning,0822.0,5.01,000.00,018.3,017.6,000.0,026.9,020.0,28.5,0000.3,0021.26,0011.64,0010.27
2024-03-07 21:59:00,SystemResetWarning,0822.0,5.01,000.00,018.3,017.6,000.0,026.9,020.0,28.5,0000.2,0021.94,0011.74,0010.37
